Content
SEND FEEDBACK

Daily
Averages
Monthly
Summary
India

DELHI, INDIA


Home > Asia > India
Elevation: 708 feet     Latitude: 28 35N     Longitude: 077 12E

WEATHER
 
SELECT A DAY
Number of Records: 218,692;   Date Range: 7/1/96 - 8/31/14
 
SHARE

PRINT THIS DATA

[ ← Previous Day ]
WEATHER ALMANAC - JANUARY 31, 2013
[ Next Day → ]
[ °C ]   °F
Weather ElementAverageHighLow
Temperature57.8 °F69.8 °F (2:30 pm)50 °F (4:30 am)
Dewpoint52.3 °F57.2 °F (8:00 pm)48.2 °F (1:00 pm)
Humidity85 %100 % (12:30 am)46 % (2:30 pm)
Barometer30.06 in30.12 in (10:00 am)30.01 in (4:00 pm)
Wind Speed2.3 mph8.1 mph (2:30 pm)
Weather ElementAverage
Visibility0.5 mi
Wind DirectionESE (115.7 °)

Weather ElementTotal
Precipitation---
Heating Degree Days5.1 (Base 65)
Growing Degree Days9.9 (Base 50)
Averaged from 42 records on January 31, 2013
WEATHER CONDITIONS BREAKOUT
WIND DIRECTION BREAKOUT
WEATHER BY HOUR - JANUARY 31, 2013
[ °C ]   °F
Local TimeTemperatureDewpointHumidityBarometerVisibilityWind DirectionWind SpeedGust SpeedPrecipitationEventsConditions
12:30 AM53.6 °F53.6 °F100 %30.06 in0.4 miCalmFogShallow Fog
1:00 AM53.6 °F53.6 °F100 %30.06 in0.4 miCalmFogShallow Fog
1:30 AM53.6 °F53.6 °F100 %30.06 in0.4 miCalmFogShallow Fog
2:00 AM53.6 °F53.6 °F100 %30.04 in0.3 miCalmFogShallow Fog
2:30 AM51.8 °F51.8 °F100 %30.06 in0.2 miCalmFogFog
3:00 AM51.8 °F51.8 °F100 %30.06 in0.2 miCalmFogFog
3:30 AM51.8 °F51.8 °F100 %30.06 in0.2 miCalmFogFog
4:00 AM51.8 °F51.8 °F100 %30.06 in0.2 miCalmFogFog
4:30 AM50.0 °F50.0 °F100 %30.06 in0.1 miCalmFogFog
5:00 AM51.8 °F51.8 °F100 %30.06 in0.1 miCalmFogFog
5:30 AM51.8 °F51.8 °F100 %30.06 in0.1 miCalmFogFog
6:00 AM50.0 °F50.0 °F100 %30.06 in0.1 miCalmFogFog
6:30 AM50.0 °F50.0 °F100 %30.06 in0.0 miCalmFogFog
7:00 AM50.0 °F50.0 °F100 %30.06 in0.1 miCalmFogFog
7:30 AM50.0 °F50.0 °F100 %30.06 in0.1 miCalmFogFog
8:00 AM50.0 °F50.0 °F100 %30.09 in0.1 miCalmFogFog
8:30 AM50.0 °F50.0 °F100 %30.09 in0.0 miCalmFogFog
9:00 AM50.0 °F50.0 °F100 %30.09 inWest (270°)4.6 mphFogFog
9:30 AM51.8 °F51.8 °F100 %30.09 inWest (270°)4.6 mphFogFog
10:00 AM53.6 °F53.6 °F100 %30.12 in0.1 miWest (270°)4.6 mphFogFog
10:30 AM55.4 °F53.6 °F94 %30.09 in0.2 miWest (270°)4.6 mphFogShallow Fog
11:00 AM57.2 °F53.6 °F88 %30.09 in0.3 miWest (270°)3.5 mphFogShallow Fog
12:30 PM66.2 °F50.0 °F56 %30.06 in0.8 miWNW (300°)4.6 mphSmoke
1:00 PM68.0 °F48.2 °F49 %30.06 in0.8 miWNW (300°)4.6 mphSmoke
1:30 PM68.0 °F48.2 °F49 %30.06 in0.9 miWest (260°)5.8 mphSmoke
2:00 PM68.0 °F51.8 °F56 %30.04 in0.9 miWest (270°)6.9 mphHaze
2:30 PM69.8 °F48.2 °F46 %30.04 in0.9 miWNW (300°)8.1 mphHaze
3:00 PM69.8 °F48.2 °F46 %30.04 in0.9 miNW (310°)8.1 mphHaze
4:00 PM69.8 °F51.8 °F53 %30.01 in0.9 miWNW (290°)6.9 mphHaze
4:30 PM69.8 °F51.8 °F53 %30.01 in0.9 miWNW (300°)6.9 mphHaze
5:00 PM68.0 °F51.8 °F56 %30.04 in1.1 miNW (310°)6.9 mphHaze
5:30 PM66.2 °F51.8 °F60 %30.04 in1.1 miWNW (290°)6.9 mphHaze
6:00 PM64.4 °F53.6 °F68 %30.04 in1.0 miWNW (300°)5.8 mphHaze
6:30 PM64.4 °F53.6 °F68 %30.04 in1.0 miWest (280°)4.6 mphSmoke
7:00 PM62.6 °F53.6 °F72 %30.04 in1.0 miCalmSmoke
8:00 PM60.8 °F57.2 °F88 %30.06 in0.6 miCalmScattered Clouds
8:30 PM59.0 °F57.2 °F94 %30.06 in0.6 miCalmFogShallow Fog
9:00 PM59.0 °F57.2 °F94 %30.06 in0.6 miCalmFogShallow Fog
10:00 PM59.0 °F57.2 °F94 %30.06 in0.4 miCalmScattered Clouds
10:30 PM57.2 °F55.4 °F94 %30.06 in0.4 miCalmFogShallow Fog
11:00 PM57.2 °F55.4 °F94 %30.09 in0.4 miCalmFogShallow Fog
11:30 PM57.2 °F57.2 °F100 %30.09 in0.3 miCalmFogFog
Hourly data recorded from VIDP, located miles away from Delhi, India







STORIES FROM OUR PARTNERS